Index of /20260501/WXO-DD/model_caps/3km/00/027
Name Last modified Size Description
Parent Directory -
20260501T00Z_MSC_CAPS_AbsoluteVorticity_IsbL-0250_RLatLon0.03_PT027H.grib2 2026-05-01 06:14 1.0M
20260501T00Z_MSC_CAPS_AbsoluteVorticity_IsbL-0500_RLatLon0.03_PT027H.grib2 2026-05-01 06:14 1.1M
20260501T00Z_MSC_CAPS_AbsoluteVorticity_IsbL-0700_RLatLon0.03_PT027H.grib2 2026-05-01 06:14 1.0M
20260501T00Z_MSC_CAPS_AbsoluteVorticity_IsbL-0850_RLatLon0.03_PT027H.grib2 2026-05-01 06:14 1.2M
20260501T00Z_MSC_CAPS_AbsoluteVorticity_IsbL-1000_RLatLon0.03_PT027H.grib2 2026-05-01 06:14 1.3M
20260501T00Z_MSC_CAPS_AirDensity_AGL-120m_RLatLon0.03_PT027H.grib2 2026-05-01 06:14 1.4M
20260501T00Z_MSC_CAPS_AirDensity_AGL-40m_RLatLon0.03_PT027H.grib2 2026-05-01 06:14 1.4M
20260501T00Z_MSC_CAPS_AirDensity_AGL-80m_RLatLon0.03_PT027H.grib2 2026-05-01 06:14 1.4M
20260501T00Z_MSC_CAPS_AirTemp_AGL-120m_RLatLon0.03_PT027H.grib2 2026-05-01 06:14 1.7M
20260501T00Z_MSC_CAPS_AirTemp_AGL-2m_RLatLon0.03_PT027H.grib2 2026-05-01 06:14 2.1M
20260501T00Z_MSC_CAPS_AirTemp_AGL-40m_RLatLon0.03_PT027H.grib2 2026-05-01 06:14 1.8M
20260501T00Z_MSC_CAPS_AirTemp_AGL-80m_RLatLon0.03_PT027H.grib2 2026-05-01 06:14 1.8M
20260501T00Z_MSC_CAPS_AirTemp_IsbL-0050_RLatLon0.03_PT027H.grib2 2026-05-01 06:14 689K
20260501T00Z_MSC_CAPS_AirTemp_IsbL-0100_RLatLon0.03_PT027H.grib2 2026-05-01 06:14 965K
20260501T00Z_MSC_CAPS_AirTemp_IsbL-0150_RLatLon0.03_PT027H.grib2 2026-05-01 06:14 754K
20260501T00Z_MSC_CAPS_AirTemp_IsbL-0175_RLatLon0.03_PT027H.grib2 2026-05-01 06:14 772K
20260501T00Z_MSC_CAPS_AirTemp_IsbL-0200_RLatLon0.03_PT027H.grib2 2026-05-01 06:14 792K
20260501T00Z_MSC_CAPS_AirTemp_IsbL-0225_RLatLon0.03_PT027H.grib2 2026-05-01 06:14 791K
20260501T00Z_MSC_CAPS_AirTemp_IsbL-0250_RLatLon0.03_PT027H.grib2 2026-05-01 06:14 1.0M
20260501T00Z_MSC_CAPS_AirTemp_IsbL-0275_RLatLon0.03_PT027H.grib2 2026-05-01 06:14 1.0M
20260501T00Z_MSC_CAPS_AirTemp_IsbL-0300_RLatLon0.03_PT027H.grib2 2026-05-01 06:14 1.0M
20260501T00Z_MSC_CAPS_AirTemp_IsbL-0350_RLatLon0.03_PT027H.grib2 2026-05-01 06:14 738K
20260501T00Z_MSC_CAPS_AirTemp_IsbL-0400_RLatLon0.03_PT027H.grib2 2026-05-01 06:14 744K
20260501T00Z_MSC_CAPS_AirTemp_IsbL-0450_RLatLon0.03_PT027H.grib2 2026-05-01 06:14 762K
20260501T00Z_MSC_CAPS_AirTemp_IsbL-0500_RLatLon0.03_PT027H.grib2 2026-05-01 06:14 783K
20260501T00Z_MSC_CAPS_AirTemp_IsbL-0550_RLatLon0.03_PT027H.grib2 2026-05-01 06:14 797K
20260501T00Z_MSC_CAPS_AirTemp_IsbL-0600_RLatLon0.03_PT027H.grib2 2026-05-01 06:14 966K
20260501T00Z_MSC_CAPS_AirTemp_IsbL-0650_RLatLon0.03_PT027H.grib2 2026-05-01 06:14 1.0M
20260501T00Z_MSC_CAPS_AirTemp_IsbL-0700_RLatLon0.03_PT027H.grib2 2026-05-01 06:14 1.0M
20260501T00Z_MSC_CAPS_AirTemp_IsbL-0750_RLatLon0.03_PT027H.grib2 2026-05-01 06:14 1.0M
20260501T00Z_MSC_CAPS_AirTemp_IsbL-0800_RLatLon0.03_PT027H.grib2 2026-05-01 06:14 1.0M
20260501T00Z_MSC_CAPS_AirTemp_IsbL-0850_RLatLon0.03_PT027H.grib2 2026-05-01 06:14 1.1M
20260501T00Z_MSC_CAPS_AirTemp_IsbL-0875_RLatLon0.03_PT027H.grib2 2026-05-01 06:14 1.1M
20260501T00Z_MSC_CAPS_AirTemp_IsbL-0900_RLatLon0.03_PT027H.grib2 2026-05-01 06:14 1.1M
20260501T00Z_MSC_CAPS_AirTemp_IsbL-0925_RLatLon0.03_PT027H.grib2 2026-05-01 06:14 1.1M
20260501T00Z_MSC_CAPS_AirTemp_IsbL-0950_RLatLon0.03_PT027H.grib2 2026-05-01 06:14 1.1M
20260501T00Z_MSC_CAPS_AirTemp_IsbL-0970_RLatLon0.03_PT027H.grib2 2026-05-01 06:14 1.1M
20260501T00Z_MSC_CAPS_AirTemp_IsbL-0985_RLatLon0.03_PT027H.grib2 2026-05-01 06:14 1.1M
20260501T00Z_MSC_CAPS_AirTemp_IsbL-1000_RLatLon0.03_PT027H.grib2 2026-05-01 06:14 1.1M
20260501T00Z_MSC_CAPS_AirTemp_IsbL-1015_RLatLon0.03_PT027H.grib2 2026-05-01 06:14 1.1M
20260501T00Z_MSC_CAPS_Albedo_Sfc_RLatLon0.03_PT027H.grib2 2026-05-01 06:14 2.7M
20260501T00Z_MSC_CAPS_CAPE_Sfc_RLatLon0.03_PT027H.grib2 2026-05-01 06:14 75K
20260501T00Z_MSC_CAPS_CloudWater_EAtm_RLatLon0.03_PT027H.grib2 2026-05-01 06:14 1.4M
20260501T00Z_MSC_CAPS_ConvectivePrecip-Accum_Sfc_RLatLon0.03_PT027H.grib2 2026-05-01 06:14 4.3M
20260501T00Z_MSC_CAPS_DewPointDepression_AGL-120m_RLatLon0.03_PT027H.grib2 2026-05-01 06:14 2.0M
20260501T00Z_MSC_CAPS_DewPointDepression_AGL-2m_RLatLon0.03_PT027H.grib2 2026-05-01 06:14 2.1M
20260501T00Z_MSC_CAPS_DewPointDepression_AGL-40m_RLatLon0.03_PT027H.grib2 2026-05-01 06:14 2.1M
20260501T00Z_MSC_CAPS_DewPointDepression_AGL-80m_RLatLon0.03_PT027H.grib2 2026-05-01 06:14 2.0M
20260501T00Z_MSC_CAPS_DewPointDepression_IsbL-0050_RLatLon0.03_PT027H.grib2 2026-05-01 06:14 8.2K
20260501T00Z_MSC_CAPS_DewPointDepression_IsbL-0100_RLatLon0.03_PT027H.grib2 2026-05-01 06:14 145K
20260501T00Z_MSC_CAPS_DewPointDepression_IsbL-0150_RLatLon0.03_PT027H.grib2 2026-05-01 06:14 119K
20260501T00Z_MSC_CAPS_DewPointDepression_IsbL-0175_RLatLon0.03_PT027H.grib2 2026-05-01 06:14 260K
20260501T00Z_MSC_CAPS_DewPointDepression_IsbL-0200_RLatLon0.03_PT027H.grib2 2026-05-01 06:14 440K
20260501T00Z_MSC_CAPS_DewPointDepression_IsbL-0225_RLatLon0.03_PT027H.grib2 2026-05-01 06:14 659K
20260501T00Z_MSC_CAPS_DewPointDepression_IsbL-0250_RLatLon0.03_PT027H.grib2 2026-05-01 06:14 871K
20260501T00Z_MSC_CAPS_DewPointDepression_IsbL-0275_RLatLon0.03_PT027H.grib2 2026-05-01 06:14 1.0M
20260501T00Z_MSC_CAPS_DewPointDepression_IsbL-0300_RLatLon0.03_PT027H.grib2 2026-05-01 06:14 1.0M
20260501T00Z_MSC_CAPS_DewPointDepression_IsbL-0350_RLatLon0.03_PT027H.grib2 2026-05-01 06:14 1.1M
20260501T00Z_MSC_CAPS_DewPointDepression_IsbL-0400_RLatLon0.03_PT027H.grib2 2026-05-01 06:14 1.1M
20260501T00Z_MSC_CAPS_DewPointDepression_IsbL-0450_RLatLon0.03_PT027H.grib2 2026-05-01 06:14 1.2M
20260501T00Z_MSC_CAPS_DewPointDepression_IsbL-0500_RLatLon0.03_PT027H.grib2 2026-05-01 06:14 1.2M
20260501T00Z_MSC_CAPS_DewPointDepression_IsbL-0550_RLatLon0.03_PT027H.grib2 2026-05-01 06:14 1.2M
20260501T00Z_MSC_CAPS_DewPointDepression_IsbL-0600_RLatLon0.03_PT027H.grib2 2026-05-01 06:14 1.2M
20260501T00Z_MSC_CAPS_DewPointDepression_IsbL-0650_RLatLon0.03_PT027H.grib2 2026-05-01 06:14 1.3M
20260501T00Z_MSC_CAPS_DewPointDepression_IsbL-0700_RLatLon0.03_PT027H.grib2 2026-05-01 06:14 1.3M
20260501T00Z_MSC_CAPS_DewPointDepression_IsbL-0750_RLatLon0.03_PT027H.grib2 2026-05-01 06:14 1.3M
20260501T00Z_MSC_CAPS_DewPointDepression_IsbL-0800_RLatLon0.03_PT027H.grib2 2026-05-01 06:14 1.3M
20260501T00Z_MSC_CAPS_DewPointDepression_IsbL-0850_RLatLon0.03_PT027H.grib2 2026-05-01 06:14 1.3M
20260501T00Z_MSC_CAPS_DewPointDepression_IsbL-0875_RLatLon0.03_PT027H.grib2 2026-05-01 06:14 1.3M
20260501T00Z_MSC_CAPS_DewPointDepression_IsbL-0900_RLatLon0.03_PT027H.grib2 2026-05-01 06:14 1.3M
20260501T00Z_MSC_CAPS_DewPointDepression_IsbL-0925_RLatLon0.03_PT027H.grib2 2026-05-01 06:14 1.3M
20260501T00Z_MSC_CAPS_DewPointDepression_IsbL-0950_RLatLon0.03_PT027H.grib2 2026-05-01 06:14 1.3M
20260501T00Z_MSC_CAPS_DewPointDepression_IsbL-0970_RLatLon0.03_PT027H.grib2 2026-05-01 06:14 1.3M
20260501T00Z_MSC_CAPS_DewPointDepression_IsbL-0985_RLatLon0.03_PT027H.grib2 2026-05-01 06:14 1.3M
20260501T00Z_MSC_CAPS_DewPointDepression_IsbL-1000_RLatLon0.03_PT027H.grib2 2026-05-01 06:14 1.3M
20260501T00Z_MSC_CAPS_DewPointDepression_IsbL-1015_RLatLon0.03_PT027H.grib2 2026-05-01 06:14 1.3M
20260501T00Z_MSC_CAPS_DewPoint_AGL-120m_RLatLon0.03_PT027H.grib2 2026-05-01 06:14 3.6M
20260501T00Z_MSC_CAPS_DewPoint_AGL-2m_RLatLon0.03_PT027H.grib2 2026-05-01 06:14 2.1M
20260501T00Z_MSC_CAPS_DewPoint_AGL-40m_RLatLon0.03_PT027H.grib2 2026-05-01 06:14 3.6M
20260501T00Z_MSC_CAPS_DewPoint_AGL-80m_RLatLon0.03_PT027H.grib2 2026-05-01 06:14 3.6M
20260501T00Z_MSC_CAPS_DownwardLongwaveRadiationFlux-Accum_Sfc_RLatLon0.03_PT027H.grib2 2026-05-01 06:14 2.4M
20260501T00Z_MSC_CAPS_DownwardShortwaveRadiationFlux-Accum_NTAtm_RLatLon0.03_PT027H.grib2 2026-05-01 06:14 448K
20260501T00Z_MSC_CAPS_DownwardShortwaveRadiationFlux-Accum_Sfc_RLatLon0.03_PT027H.grib2 2026-05-01 06:14 2.7M
20260501T00Z_MSC_CAPS_FreezingRain-Accum_Sfc_RLatLon0.03_PT027H.grib2 2026-05-01 06:14 639K
20260501T00Z_MSC_CAPS_GeopotentialHeight_IsbL-0050_RLatLon0.03_PT027H.grib2 2026-05-01 06:14 633K
20260501T00Z_MSC_CAPS_GeopotentialHeight_IsbL-0100_RLatLon0.03_PT027H.grib2 2026-05-01 06:14 757K
20260501T00Z_MSC_CAPS_GeopotentialHeight_IsbL-0150_RLatLon0.03_PT027H.grib2 2026-05-01 06:14 721K
20260501T00Z_MSC_CAPS_GeopotentialHeight_IsbL-0175_RLatLon0.03_PT027H.grib2 2026-05-01 06:14 734K
20260501T00Z_MSC_CAPS_GeopotentialHeight_IsbL-0200_RLatLon0.03_PT027H.grib2 2026-05-01 06:14 746K
20260501T00Z_MSC_CAPS_GeopotentialHeight_IsbL-0225_RLatLon0.03_PT027H.grib2 2026-05-01 06:14 756K
20260501T00Z_MSC_CAPS_GeopotentialHeight_IsbL-0250_RLatLon0.03_PT027H.grib2 2026-05-01 06:14 766K
20260501T00Z_MSC_CAPS_GeopotentialHeight_IsbL-0275_RLatLon0.03_PT027H.grib2 2026-05-01 06:14 774K
20260501T00Z_MSC_CAPS_GeopotentialHeight_IsbL-0300_RLatLon0.03_PT027H.grib2 2026-05-01 06:14 777K
20260501T00Z_MSC_CAPS_GeopotentialHeight_IsbL-0350_RLatLon0.03_PT027H.grib2 2026-05-01 06:14 776K
20260501T00Z_MSC_CAPS_GeopotentialHeight_IsbL-0400_RLatLon0.03_PT027H.grib2 2026-05-01 06:14 772K
20260501T00Z_MSC_CAPS_GeopotentialHeight_IsbL-0450_RLatLon0.03_PT027H.grib2 2026-05-01 06:14 765K
20260501T00Z_MSC_CAPS_GeopotentialHeight_IsbL-0500_RLatLon0.03_PT027H.grib2 2026-05-01 06:14 756K
20260501T00Z_MSC_CAPS_GeopotentialHeight_IsbL-0550_RLatLon0.03_PT027H.grib2 2026-05-01 06:14 749K
20260501T00Z_MSC_CAPS_GeopotentialHeight_IsbL-0600_RLatLon0.03_PT027H.grib2 2026-05-01 06:14 636K
20260501T00Z_MSC_CAPS_GeopotentialHeight_IsbL-0650_RLatLon0.03_PT027H.grib2 2026-05-01 06:14 638K
20260501T00Z_MSC_CAPS_GeopotentialHeight_IsbL-0700_RLatLon0.03_PT027H.grib2 2026-05-01 06:14 811K
20260501T00Z_MSC_CAPS_GeopotentialHeight_IsbL-0750_RLatLon0.03_PT027H.grib2 2026-05-01 06:14 815K
20260501T00Z_MSC_CAPS_GeopotentialHeight_IsbL-0800_RLatLon0.03_PT027H.grib2 2026-05-01 06:14 819K
20260501T00Z_MSC_CAPS_GeopotentialHeight_IsbL-0850_RLatLon0.03_PT027H.grib2 2026-05-01 06:14 900K
20260501T00Z_MSC_CAPS_GeopotentialHeight_IsbL-0875_RLatLon0.03_PT027H.grib2 2026-05-01 06:14 905K
20260501T00Z_MSC_CAPS_GeopotentialHeight_IsbL-0900_RLatLon0.03_PT027H.grib2 2026-05-01 06:14 910K
20260501T00Z_MSC_CAPS_GeopotentialHeight_IsbL-0925_RLatLon0.03_PT027H.grib2 2026-05-01 06:14 918K
20260501T00Z_MSC_CAPS_GeopotentialHeight_IsbL-0950_RLatLon0.03_PT027H.grib2 2026-05-01 06:14 930K
20260501T00Z_MSC_CAPS_GeopotentialHeight_IsbL-0970_RLatLon0.03_PT027H.grib2 2026-05-01 06:14 940K
20260501T00Z_MSC_CAPS_GeopotentialHeight_IsbL-0985_RLatLon0.03_PT027H.grib2 2026-05-01 06:14 948K
20260501T00Z_MSC_CAPS_GeopotentialHeight_IsbL-1000_RLatLon0.03_PT027H.grib2 2026-05-01 06:14 958K
20260501T00Z_MSC_CAPS_GeopotentialHeight_IsbL-1015_RLatLon0.03_PT027H.grib2 2026-05-01 06:14 970K
20260501T00Z_MSC_CAPS_GeopotentialHeight_Sfc_RLatLon0.03_PT027H.grib2 2026-05-01 06:14 1.0M
20260501T00Z_MSC_CAPS_IcePellets-Accum_Sfc_RLatLon0.03_PT027H.grib2 2026-05-01 06:14 52K
20260501T00Z_MSC_CAPS_LatentHeatNetFlux_Sfc_RLatLon0.03_PT027H.grib2 2026-05-01 06:14 2.2M
20260501T00Z_MSC_CAPS_LiftedIndex-MU-VT_IsbL-0500_RLatLon0.03_PT027H.grib2 2026-05-01 06:14 3.3M
20260501T00Z_MSC_CAPS_MixedLayerThickness_Sfc_RLatLon0.03_PT027H.nc 2026-05-01 06:11 17M
20260501T00Z_MSC_CAPS_NetLongwaveRadiationFlux-Accum_Sfc_RLatLon0.03_PT027H.grib2 2026-05-01 06:14 2.6M
20260501T00Z_MSC_CAPS_NetShortwaveRadiationFlux-Accum_Sfc_RLatLon0.03_PT027H.grib2 2026-05-01 06:14 3.1M
20260501T00Z_MSC_CAPS_PlanetaryBoundaryLayerHeight_Sfc_RLatLon0.03_PT027H.grib2 2026-05-01 06:14 2.9M
20260501T00Z_MSC_CAPS_Precip-Accum_Sfc_RLatLon0.03_PT027H.grib2 2026-05-01 06:14 4.0M
20260501T00Z_MSC_CAPS_PrecipRate_Sfc_RLatLon0.03_PT027H.grib2 2026-05-01 06:14 648K
20260501T00Z_MSC_CAPS_PrecipType-Instant_Sfc_RLatLon0.03_PT027H.grib2 2026-05-01 06:14 1.9M
20260501T00Z_MSC_CAPS_Pressure_MSL_RLatLon0.03_PT027H.grib2 2026-05-01 06:14 764K
20260501T00Z_MSC_CAPS_Pressure_Sfc_RLatLon0.03_PT027H.grib2 2026-05-01 06:14 1.2M
20260501T00Z_MSC_CAPS_RadiativeTemp_Sfc_RLatLon0.03_PT027H.grib2 2026-05-01 06:14 2.0M
20260501T00Z_MSC_CAPS_Rain-Accum_Sfc_RLatLon0.03_PT027H.grib2 2026-05-01 06:14 1.8M
20260501T00Z_MSC_CAPS_RelativeHumidity_AGL-120m_RLatLon0.03_PT027H.grib2 2026-05-01 06:14 2.7M
20260501T00Z_MSC_CAPS_RelativeHumidity_AGL-2m_RLatLon0.03_PT027H.grib2 2026-05-01 06:14 2.9M
20260501T00Z_MSC_CAPS_RelativeHumidity_AGL-40m_RLatLon0.03_PT027H.grib2 2026-05-01 06:14 2.8M
20260501T00Z_MSC_CAPS_RelativeHumidity_AGL-80m_RLatLon0.03_PT027H.grib2 2026-05-01 06:14 2.7M
20260501T00Z_MSC_CAPS_RelativeHumidity_IsbL-0050_RLatLon0.03_PT027H.grib2 2026-05-01 06:14 733K
20260501T00Z_MSC_CAPS_RelativeHumidity_IsbL-0100_RLatLon0.03_PT027H.grib2 2026-05-01 06:14 880K
20260501T00Z_MSC_CAPS_RelativeHumidity_IsbL-0150_RLatLon0.03_PT027H.grib2 2026-05-01 06:14 593K
20260501T00Z_MSC_CAPS_RelativeHumidity_IsbL-0175_RLatLon0.03_PT027H.grib2 2026-05-01 06:14 497K
20260501T00Z_MSC_CAPS_RelativeHumidity_IsbL-0200_RLatLon0.03_PT027H.grib2 2026-05-01 06:14 703K
20260501T00Z_MSC_CAPS_RelativeHumidity_IsbL-0225_RLatLon0.03_PT027H.grib2 2026-05-01 06:14 902K
20260501T00Z_MSC_CAPS_RelativeHumidity_IsbL-0250_RLatLon0.03_PT027H.grib2 2026-05-01 06:14 1.1M
20260501T00Z_MSC_CAPS_RelativeHumidity_IsbL-0275_RLatLon0.03_PT027H.grib2 2026-05-01 06:14 1.4M
20260501T00Z_MSC_CAPS_RelativeHumidity_IsbL-0300_RLatLon0.03_PT027H.grib2 2026-05-01 06:14 1.7M
20260501T00Z_MSC_CAPS_RelativeHumidity_IsbL-0350_RLatLon0.03_PT027H.grib2 2026-05-01 06:14 2.0M
20260501T00Z_MSC_CAPS_RelativeHumidity_IsbL-0400_RLatLon0.03_PT027H.grib2 2026-05-01 06:14 1.9M
20260501T00Z_MSC_CAPS_RelativeHumidity_IsbL-0450_RLatLon0.03_PT027H.grib2 2026-05-01 06:14 2.0M
20260501T00Z_MSC_CAPS_RelativeHumidity_IsbL-0500_RLatLon0.03_PT027H.grib2 2026-05-01 06:14 2.1M
20260501T00Z_MSC_CAPS_RelativeHumidity_IsbL-0550_RLatLon0.03_PT027H.grib2 2026-05-01 06:14 2.1M
20260501T00Z_MSC_CAPS_RelativeHumidity_IsbL-0600_RLatLon0.03_PT027H.grib2 2026-05-01 06:14 2.2M
20260501T00Z_MSC_CAPS_RelativeHumidity_IsbL-0650_RLatLon0.03_PT027H.grib2 2026-05-01 06:14 2.3M
20260501T00Z_MSC_CAPS_RelativeHumidity_IsbL-0700_RLatLon0.03_PT027H.grib2 2026-05-01 06:14 2.3M
20260501T00Z_MSC_CAPS_RelativeHumidity_IsbL-0750_RLatLon0.03_PT027H.grib2 2026-05-01 06:14 2.3M
20260501T00Z_MSC_CAPS_RelativeHumidity_IsbL-0800_RLatLon0.03_PT027H.grib2 2026-05-01 06:14 2.4M
20260501T00Z_MSC_CAPS_RelativeHumidity_IsbL-0850_RLatLon0.03_PT027H.grib2 2026-05-01 06:14 2.4M
20260501T00Z_MSC_CAPS_RelativeHumidity_IsbL-0875_RLatLon0.03_PT027H.grib2 2026-05-01 06:14 2.5M
20260501T00Z_MSC_CAPS_RelativeHumidity_IsbL-0900_RLatLon0.03_PT027H.grib2 2026-05-01 06:14 2.5M
20260501T00Z_MSC_CAPS_RelativeHumidity_IsbL-0925_RLatLon0.03_PT027H.grib2 2026-05-01 06:14 2.5M
20260501T00Z_MSC_CAPS_RelativeHumidity_IsbL-0950_RLatLon0.03_PT027H.grib2 2026-05-01 06:14 2.7M
20260501T00Z_MSC_CAPS_RelativeHumidity_IsbL-0970_RLatLon0.03_PT027H.grib2 2026-05-01 06:14 2.7M
20260501T00Z_MSC_CAPS_RelativeHumidity_IsbL-0985_RLatLon0.03_PT027H.grib2 2026-05-01 06:14 2.8M
20260501T00Z_MSC_CAPS_RelativeHumidity_IsbL-1000_RLatLon0.03_PT027H.grib2 2026-05-01 06:14 2.8M
20260501T00Z_MSC_CAPS_RelativeHumidity_IsbL-1015_RLatLon0.03_PT027H.grib2 2026-05-01 06:14 2.9M
20260501T00Z_MSC_CAPS_Runoff-Accum_Sfc_RLatLon0.03_PT027H.grib2 2026-05-01 06:14 302K
20260501T00Z_MSC_CAPS_SeaIceAreaFraction_Sfc_RLatLon0.03_PT027H.nc 2026-05-01 06:11 15M
20260501T00Z_MSC_CAPS_SeaIceCompressiveStrength_Sfc_RLatLon0.03_PT027H.nc 2026-05-01 06:11 15M
20260501T00Z_MSC_CAPS_SeaIceDivergence_Sfc_RLatLon0.03_PT027H.nc 2026-05-01 06:11 15M
20260501T00Z_MSC_CAPS_SeaIceInternalPressure_Sfc_RLatLon0.03_PT027H.nc 2026-05-01 06:11 15M
20260501T00Z_MSC_CAPS_SeaIceShear_Sfc_RLatLon0.03_PT027H.nc 2026-05-01 06:11 14M
20260501T00Z_MSC_CAPS_SeaIceSnowTemp_Sfc_RLatLon0.03_PT027H.nc 2026-05-01 06:11 15M
20260501T00Z_MSC_CAPS_SeaIceSnowVolume_Sfc_RLatLon0.03_PT027H.nc 2026-05-01 06:11 15M
20260501T00Z_MSC_CAPS_SeaIceVelocityX_Sfc_RLatLon0.03_PT027H.nc 2026-05-01 06:11 15M
20260501T00Z_MSC_CAPS_SeaIceVelocityY_Sfc_RLatLon0.03_PT027H.nc 2026-05-01 06:11 15M
20260501T00Z_MSC_CAPS_SeaIceVolume_Sfc_RLatLon0.03_PT027H.nc 2026-05-01 06:11 15M
20260501T00Z_MSC_CAPS_SeaSurfaceHeight_Sfc_RLatLon0.03_PT027H.nc 2026-05-01 06:11 16M
20260501T00Z_MSC_CAPS_SeaWaterSalinity_DBS-0.5m_RLatLon0.03_PT027H.nc 2026-05-01 06:11 16M
20260501T00Z_MSC_CAPS_SeaWaterSalinity_DBS-all_RLatLon0.03_PT027H.nc 2026-05-01 06:11 107M
20260501T00Z_MSC_CAPS_SeaWaterTemp_DBS-0.5m_RLatLon0.03_PT027H.nc 2026-05-01 06:11 14M
20260501T00Z_MSC_CAPS_SeaWaterTemp_DBS-all_RLatLon0.03_PT027H.nc 2026-05-01 06:11 87M
20260501T00Z_MSC_CAPS_SeaWaterVelocityX_DBS-0.5m_RLatLon0.03_PT027H.nc 2026-05-01 06:11 17M
20260501T00Z_MSC_CAPS_SeaWaterVelocityX_DBS-all_RLatLon0.03_PT027H.nc 2026-05-01 06:11 208M
20260501T00Z_MSC_CAPS_SeaWaterVelocityY_DBS-0.5m_RLatLon0.03_PT027H.nc 2026-05-01 06:11 17M
20260501T00Z_MSC_CAPS_SeaWaterVelocityY_DBS-all_RLatLon0.03_PT027H.nc 2026-05-01 06:11 210M
20260501T00Z_MSC_CAPS_SensibleHeatNetFlux_Sfc_RLatLon0.03_PT027H.grib2 2026-05-01 06:14 2.1M
20260501T00Z_MSC_CAPS_ShowalterIndex_IsbL-0500_RLatLon0.03_PT027H.grib2 2026-05-01 06:14 4.3M
20260501T00Z_MSC_CAPS_Snow-Accum_Sfc_RLatLon0.03_PT027H.grib2 2026-05-01 06:14 3.2M
20260501T00Z_MSC_CAPS_SnowDensity_Sfc_RLatLon0.03_PT027H.grib2 2026-05-01 06:14 1.3M
20260501T00Z_MSC_CAPS_SnowDepthWaterEquivalent_Sfc_RLatLon0.03_PT027H.grib2 2026-05-01 06:14 685K
20260501T00Z_MSC_CAPS_SnowDepth_Sfc_RLatLon0.03_PT027H.grib2 2026-05-01 06:14 1.2M
20260501T00Z_MSC_CAPS_SoilTemp_DBS-0to10cm_RLatLon0.03_PT027H.grib2 2026-05-01 06:14 1.6M
20260501T00Z_MSC_CAPS_SoilTemp_Sfc_RLatLon0.03_PT027H.grib2 2026-05-01 06:14 1.8M
20260501T00Z_MSC_CAPS_SoilVolumetricIceContent_Sfc_RLatLon0.03_PT027H.grib2 2026-05-01 06:14 1.4M
20260501T00Z_MSC_CAPS_SoilVolumetricWaterContent_DBS-0to10cm_RLatLon0.03_PT027H.grib2 2026-05-01 06:14 1.2M
20260501T00Z_MSC_CAPS_SoilVolumetricWaterContent_DBS-0to1cm_RLatLon0.03_PT027H.grib2 2026-05-01 06:14 1.7M
20260501T00Z_MSC_CAPS_SpecificHumidity_AGL-120m_RLatLon0.03_PT027H.grib2 2026-05-01 06:14 1.7M
20260501T00Z_MSC_CAPS_SpecificHumidity_AGL-2m_RLatLon0.03_PT027H.grib2 2026-05-01 06:14 2.1M
20260501T00Z_MSC_CAPS_SpecificHumidity_AGL-40m_RLatLon0.03_PT027H.grib2 2026-05-01 06:14 1.8M
20260501T00Z_MSC_CAPS_SpecificHumidity_AGL-80m_RLatLon0.03_PT027H.grib2 2026-05-01 06:14 1.7M
20260501T00Z_MSC_CAPS_SpecificHumidity_IsbL-0050_RLatLon0.03_PT027H.grib2 2026-05-01 06:14 897K
20260501T00Z_MSC_CAPS_SpecificHumidity_IsbL-0100_RLatLon0.03_PT027H.grib2 2026-05-01 06:14 1.0M
20260501T00Z_MSC_CAPS_SpecificHumidity_IsbL-0150_RLatLon0.03_PT027H.grib2 2026-05-01 06:14 771K
20260501T00Z_MSC_CAPS_SpecificHumidity_IsbL-0175_RLatLon0.03_PT027H.grib2 2026-05-01 06:14 1.0M
20260501T00Z_MSC_CAPS_SpecificHumidity_IsbL-0200_RLatLon0.03_PT027H.grib2 2026-05-01 06:14 1.0M
20260501T00Z_MSC_CAPS_SpecificHumidity_IsbL-0225_RLatLon0.03_PT027H.grib2 2026-05-01 06:14 843K
20260501T00Z_MSC_CAPS_SpecificHumidity_IsbL-0250_RLatLon0.03_PT027H.grib2 2026-05-01 06:14 845K
20260501T00Z_MSC_CAPS_SpecificHumidity_IsbL-0275_RLatLon0.03_PT027H.grib2 2026-05-01 06:14 1.1M
20260501T00Z_MSC_CAPS_SpecificHumidity_IsbL-0300_RLatLon0.03_PT027H.grib2 2026-05-01 06:14 1.0M
20260501T00Z_MSC_CAPS_SpecificHumidity_IsbL-0350_RLatLon0.03_PT027H.grib2 2026-05-01 06:14 970K
20260501T00Z_MSC_CAPS_SpecificHumidity_IsbL-0400_RLatLon0.03_PT027H.grib2 2026-05-01 06:14 1.2M
20260501T00Z_MSC_CAPS_SpecificHumidity_IsbL-0450_RLatLon0.03_PT027H.grib2 2026-05-01 06:14 1.1M
20260501T00Z_MSC_CAPS_SpecificHumidity_IsbL-0500_RLatLon0.03_PT027H.grib2 2026-05-01 06:14 1.4M
20260501T00Z_MSC_CAPS_SpecificHumidity_IsbL-0550_RLatLon0.03_PT027H.grib2 2026-05-01 06:14 1.3M
20260501T00Z_MSC_CAPS_SpecificHumidity_IsbL-0600_RLatLon0.03_PT027H.grib2 2026-05-01 06:14 1.4M
20260501T00Z_MSC_CAPS_SpecificHumidity_IsbL-0650_RLatLon0.03_PT027H.grib2 2026-05-01 06:14 1.5M
20260501T00Z_MSC_CAPS_SpecificHumidity_IsbL-0700_RLatLon0.03_PT027H.grib2 2026-05-01 06:14 1.3M
20260501T00Z_MSC_CAPS_SpecificHumidity_IsbL-0750_RLatLon0.03_PT027H.grib2 2026-05-01 06:14 1.4M
20260501T00Z_MSC_CAPS_SpecificHumidity_IsbL-0800_RLatLon0.03_PT027H.grib2 2026-05-01 06:14 1.5M
20260501T00Z_MSC_CAPS_SpecificHumidity_IsbL-0850_RLatLon0.03_PT027H.grib2 2026-05-01 06:14 1.6M
20260501T00Z_MSC_CAPS_SpecificHumidity_IsbL-0875_RLatLon0.03_PT027H.grib2 2026-05-01 06:14 1.7M
20260501T00Z_MSC_CAPS_SpecificHumidity_IsbL-0900_RLatLon0.03_PT027H.grib2 2026-05-01 06:14 1.8M
20260501T00Z_MSC_CAPS_SpecificHumidity_IsbL-0925_RLatLon0.03_PT027H.grib2 2026-05-01 06:14 1.8M
20260501T00Z_MSC_CAPS_SpecificHumidity_IsbL-0950_RLatLon0.03_PT027H.grib2 2026-05-01 06:14 1.9M
20260501T00Z_MSC_CAPS_SpecificHumidity_IsbL-0970_RLatLon0.03_PT027H.grib2 2026-05-01 06:14 2.0M
20260501T00Z_MSC_CAPS_SpecificHumidity_IsbL-0985_RLatLon0.03_PT027H.grib2 2026-05-01 06:14 2.0M
20260501T00Z_MSC_CAPS_SpecificHumidity_IsbL-1000_RLatLon0.03_PT027H.grib2 2026-05-01 06:14 2.0M
20260501T00Z_MSC_CAPS_SpecificHumidity_IsbL-1015_RLatLon0.03_PT027H.grib2 2026-05-01 06:14 2.1M
20260501T00Z_MSC_CAPS_SpecificHumidity_Sfc_RLatLon0.03_PT027H.grib2 2026-05-01 06:14 2.4M
20260501T00Z_MSC_CAPS_StormRelativeHelicity_Sfc_RLatLon0.03_PT027H.grib2 2026-05-01 06:14 2.7M
20260501T00Z_MSC_CAPS_Thickness_IsbL-1000to0500_RLatLon0.03_PT027H.grib2 2026-05-01 06:14 429K
20260501T00Z_MSC_CAPS_TotalCloudCover_Sfc_RLatLon0.03_PT027H.grib2 2026-05-01 06:14 3.5M
20260501T00Z_MSC_CAPS_TurboclineDepth_Sfc_RLatLon0.03_PT027H.nc 2026-05-01 06:11 16M
20260501T00Z_MSC_CAPS_UpwardLongwaveRadiationFlux_NTAtm_RLatLon0.03_PT027H.grib2 2026-05-01 06:14 2.9M
20260501T00Z_MSC_CAPS_UpwardShortwaveRadiationFlux_NTAtm_RLatLon0.03_PT027H.grib2 2026-05-01 06:14 1.8M
20260501T00Z_MSC_CAPS_VerticalVelocity_IsbL-0250_RLatLon0.03_PT027H.grib2 2026-05-01 06:14 1.0M
20260501T00Z_MSC_CAPS_VerticalVelocity_IsbL-0500_RLatLon0.03_PT027H.grib2 2026-05-01 06:14 885K
20260501T00Z_MSC_CAPS_VerticalVelocity_IsbL-0700_RLatLon0.03_PT027H.grib2 2026-05-01 06:14 946K
20260501T00Z_MSC_CAPS_VerticalVelocity_IsbL-0850_RLatLon0.03_PT027H.grib2 2026-05-01 06:14 1.1M
20260501T00Z_MSC_CAPS_VerticalVelocity_IsbL-1000_RLatLon0.03_PT027H.grib2 2026-05-01 06:14 1.1M
20260501T00Z_MSC_CAPS_WindDir_AGL-10m_RLatLon0.03_PT027H.grib2 2026-05-01 06:14 2.3M
20260501T00Z_MSC_CAPS_WindDir_AGL-120m_RLatLon0.03_PT027H.grib2 2026-05-01 06:14 1.2M
20260501T00Z_MSC_CAPS_WindDir_AGL-40m_RLatLon0.03_PT027H.grib2 2026-05-01 06:14 1.3M
20260501T00Z_MSC_CAPS_WindDir_AGL-80m_RLatLon0.03_PT027H.grib2 2026-05-01 06:14 1.2M
20260501T00Z_MSC_CAPS_WindDir_IsbL-0050_RLatLon0.03_PT027H.grib2 2026-05-01 06:14 1.0M
20260501T00Z_MSC_CAPS_WindDir_IsbL-0100_RLatLon0.03_PT027H.grib2 2026-05-01 06:14 1.0M
20260501T00Z_MSC_CAPS_WindDir_IsbL-0150_RLatLon0.03_PT027H.grib2 2026-05-01 06:14 1.0M
20260501T00Z_MSC_CAPS_WindDir_IsbL-0175_RLatLon0.03_PT027H.grib2 2026-05-01 06:14 1.1M
20260501T00Z_MSC_CAPS_WindDir_IsbL-0200_RLatLon0.03_PT027H.grib2 2026-05-01 06:14 1.1M
20260501T00Z_MSC_CAPS_WindDir_IsbL-0225_RLatLon0.03_PT027H.grib2 2026-05-01 06:14 1.1M
20260501T00Z_MSC_CAPS_WindDir_IsbL-0250_RLatLon0.03_PT027H.grib2 2026-05-01 06:14 1.1M
20260501T00Z_MSC_CAPS_WindDir_IsbL-0275_RLatLon0.03_PT027H.grib2 2026-05-01 06:14 1.1M
20260501T00Z_MSC_CAPS_WindDir_IsbL-0300_RLatLon0.03_PT027H.grib2 2026-05-01 06:14 1.1M
20260501T00Z_MSC_CAPS_WindDir_IsbL-0350_RLatLon0.03_PT027H.grib2 2026-05-01 06:14 1.1M
20260501T00Z_MSC_CAPS_WindDir_IsbL-0400_RLatLon0.03_PT027H.grib2 2026-05-01 06:14 1.1M
20260501T00Z_MSC_CAPS_WindDir_IsbL-0450_RLatLon0.03_PT027H.grib2 2026-05-01 06:14 1.2M
20260501T00Z_MSC_CAPS_WindDir_IsbL-0500_RLatLon0.03_PT027H.grib2 2026-05-01 06:14 1.2M
20260501T00Z_MSC_CAPS_WindDir_IsbL-0550_RLatLon0.03_PT027H.grib2 2026-05-01 06:14 1.3M
20260501T00Z_MSC_CAPS_WindDir_IsbL-0600_RLatLon0.03_PT027H.grib2 2026-05-01 06:14 1.3M
20260501T00Z_MSC_CAPS_WindDir_IsbL-0650_RLatLon0.03_PT027H.grib2 2026-05-01 06:14 1.4M
20260501T00Z_MSC_CAPS_WindDir_IsbL-0700_RLatLon0.03_PT027H.grib2 2026-05-01 06:14 1.4M
20260501T00Z_MSC_CAPS_WindDir_IsbL-0750_RLatLon0.03_PT027H.grib2 2026-05-01 06:14 1.5M
20260501T00Z_MSC_CAPS_WindDir_IsbL-0800_RLatLon0.03_PT027H.grib2 2026-05-01 06:14 1.6M
20260501T00Z_MSC_CAPS_WindDir_IsbL-0850_RLatLon0.03_PT027H.grib2 2026-05-01 06:14 1.7M
20260501T00Z_MSC_CAPS_WindDir_IsbL-0875_RLatLon0.03_PT027H.grib2 2026-05-01 06:14 1.8M
20260501T00Z_MSC_CAPS_WindDir_IsbL-0900_RLatLon0.03_PT027H.grib2 2026-05-01 06:14 1.8M
20260501T00Z_MSC_CAPS_WindDir_IsbL-0925_RLatLon0.03_PT027H.grib2 2026-05-01 06:14 1.9M
20260501T00Z_MSC_CAPS_WindDir_IsbL-0950_RLatLon0.03_PT027H.grib2 2026-05-01 06:14 2.0M
20260501T00Z_MSC_CAPS_WindDir_IsbL-0970_RLatLon0.03_PT027H.grib2 2026-05-01 06:14 2.0M
20260501T00Z_MSC_CAPS_WindDir_IsbL-0985_RLatLon0.03_PT027H.grib2 2026-05-01 06:14 2.1M
20260501T00Z_MSC_CAPS_WindDir_IsbL-1000_RLatLon0.03_PT027H.grib2 2026-05-01 06:14 2.2M
20260501T00Z_MSC_CAPS_WindDir_IsbL-1015_RLatLon0.03_PT027H.grib2 2026-05-01 06:14 2.3M
20260501T00Z_MSC_CAPS_WindGust-Max_AGL-10m_RLatLon0.03_PT027H.grib2 2026-05-01 06:14 2.5M
20260501T00Z_MSC_CAPS_WindGust-Min_AGL-10m_RLatLon0.03_PT027H.grib2 2026-05-01 06:14 2.3M
20260501T00Z_MSC_CAPS_WindGust_AGL-10m_RLatLon0.03_PT027H.grib2 2026-05-01 06:14 2.5M
20260501T00Z_MSC_CAPS_WindSpeed_AGL-10m_RLatLon0.03_PT027H.grib2 2026-05-01 06:14 2.1M
20260501T00Z_MSC_CAPS_WindSpeed_AGL-120m_RLatLon0.03_PT027H.grib2 2026-05-01 06:14 1.1M
20260501T00Z_MSC_CAPS_WindSpeed_AGL-40m_RLatLon0.03_PT027H.grib2 2026-05-01 06:14 1.2M
20260501T00Z_MSC_CAPS_WindSpeed_AGL-80m_RLatLon0.03_PT027H.grib2 2026-05-01 06:14 1.1M
20260501T00Z_MSC_CAPS_WindSpeed_IsbL-0050_RLatLon0.03_PT027H.grib2 2026-05-01 06:14 1.0M
20260501T00Z_MSC_CAPS_WindSpeed_IsbL-0100_RLatLon0.03_PT027H.grib2 2026-05-01 06:14 1.0M
20260501T00Z_MSC_CAPS_WindSpeed_IsbL-0150_RLatLon0.03_PT027H.grib2 2026-05-01 06:14 1.0M
20260501T00Z_MSC_CAPS_WindSpeed_IsbL-0175_RLatLon0.03_PT027H.grib2 2026-05-01 06:14 927K
20260501T00Z_MSC_CAPS_WindSpeed_IsbL-0200_RLatLon0.03_PT027H.grib2 2026-05-01 06:14 940K
20260501T00Z_MSC_CAPS_WindSpeed_IsbL-0225_RLatLon0.03_PT027H.grib2 2026-05-01 06:14 1.0M
20260501T00Z_MSC_CAPS_WindSpeed_IsbL-0250_RLatLon0.03_PT027H.grib2 2026-05-01 06:14 1.0M
20260501T00Z_MSC_CAPS_WindSpeed_IsbL-0275_RLatLon0.03_PT027H.grib2 2026-05-01 06:14 1.0M
20260501T00Z_MSC_CAPS_WindSpeed_IsbL-0300_RLatLon0.03_PT027H.grib2 2026-05-01 06:14 1.0M
20260501T00Z_MSC_CAPS_WindSpeed_IsbL-0350_RLatLon0.03_PT027H.grib2 2026-05-01 06:14 1.0M
20260501T00Z_MSC_CAPS_WindSpeed_IsbL-0400_RLatLon0.03_PT027H.grib2 2026-05-01 06:14 1.0M
20260501T00Z_MSC_CAPS_WindSpeed_IsbL-0450_RLatLon0.03_PT027H.grib2 2026-05-01 06:14 1.0M
20260501T00Z_MSC_CAPS_WindSpeed_IsbL-0500_RLatLon0.03_PT027H.grib2 2026-05-01 06:14 1.4M
20260501T00Z_MSC_CAPS_WindSpeed_IsbL-0550_RLatLon0.03_PT027H.grib2 2026-05-01 06:14 1.3M
20260501T00Z_MSC_CAPS_WindSpeed_IsbL-0600_RLatLon0.03_PT027H.grib2 2026-05-01 06:14 1.5M
20260501T00Z_MSC_CAPS_WindSpeed_IsbL-0650_RLatLon0.03_PT027H.grib2 2026-05-01 06:14 1.5M
20260501T00Z_MSC_CAPS_WindSpeed_IsbL-0700_RLatLon0.03_PT027H.grib2 2026-05-01 06:14 1.5M
20260501T00Z_MSC_CAPS_WindSpeed_IsbL-0750_RLatLon0.03_PT027H.grib2 2026-05-01 06:14 1.6M
20260501T00Z_MSC_CAPS_WindSpeed_IsbL-0800_RLatLon0.03_PT027H.grib2 2026-05-01 06:14 1.6M
20260501T00Z_MSC_CAPS_WindSpeed_IsbL-0850_RLatLon0.03_PT027H.grib2 2026-05-01 06:14 1.7M
20260501T00Z_MSC_CAPS_WindSpeed_IsbL-0875_RLatLon0.03_PT027H.grib2 2026-05-01 06:14 1.7M
20260501T00Z_MSC_CAPS_WindSpeed_IsbL-0900_RLatLon0.03_PT027H.grib2 2026-05-01 06:14 1.8M
20260501T00Z_MSC_CAPS_WindSpeed_IsbL-0925_RLatLon0.03_PT027H.grib2 2026-05-01 06:14 1.8M
20260501T00Z_MSC_CAPS_WindSpeed_IsbL-0950_RLatLon0.03_PT027H.grib2 2026-05-01 06:14 1.9M
20260501T00Z_MSC_CAPS_WindSpeed_IsbL-0970_RLatLon0.03_PT027H.grib2 2026-05-01 06:14 1.9M
20260501T00Z_MSC_CAPS_WindSpeed_IsbL-0985_RLatLon0.03_PT027H.grib2 2026-05-01 06:14 2.0M
20260501T00Z_MSC_CAPS_WindSpeed_IsbL-1000_RLatLon0.03_PT027H.grib2 2026-05-01 06:14 2.0M
20260501T00Z_MSC_CAPS_WindSpeed_IsbL-1015_RLatLon0.03_PT027H.grib2 2026-05-01 06:14 2.0M
20260501T00Z_MSC_CAPS_WindU_AGL-10m_RLatLon0.03_PT027H.grib2 2026-05-01 06:14 2.0M
20260501T00Z_MSC_CAPS_WindU_AGL-120m_RLatLon0.03_PT027H.grib2 2026-05-01 06:14 886K
20260501T00Z_MSC_CAPS_WindU_AGL-40m_RLatLon0.03_PT027H.grib2 2026-05-01 06:14 1.2M
20260501T00Z_MSC_CAPS_WindU_AGL-80m_RLatLon0.03_PT027H.grib2 2026-05-01 06:14 1.2M
20260501T00Z_MSC_CAPS_WindU_IsbL-0050_RLatLon0.03_PT027H.grib2 2026-05-01 06:14 937K
20260501T00Z_MSC_CAPS_WindU_IsbL-0100_RLatLon0.03_PT027H.grib2 2026-05-01 06:14 812K
20260501T00Z_MSC_CAPS_WindU_IsbL-0150_RLatLon0.03_PT027H.grib2 2026-05-01 06:14 719K
20260501T00Z_MSC_CAPS_WindU_IsbL-0175_RLatLon0.03_PT027H.grib2 2026-05-01 06:14 857K
20260501T00Z_MSC_CAPS_WindU_IsbL-0200_RLatLon0.03_PT027H.grib2 2026-05-01 06:14 872K
20260501T00Z_MSC_CAPS_WindU_IsbL-0225_RLatLon0.03_PT027H.grib2 2026-05-01 06:14 678K
20260501T00Z_MSC_CAPS_WindU_IsbL-0250_RLatLon0.03_PT027H.grib2 2026-05-01 06:14 692K
20260501T00Z_MSC_CAPS_WindU_IsbL-0275_RLatLon0.03_PT027H.grib2 2026-05-01 06:14 701K
20260501T00Z_MSC_CAPS_WindU_IsbL-0300_RLatLon0.03_PT027H.grib2 2026-05-01 06:14 709K
20260501T00Z_MSC_CAPS_WindU_IsbL-0350_RLatLon0.03_PT027H.grib2 2026-05-01 06:14 720K
20260501T00Z_MSC_CAPS_WindU_IsbL-0400_RLatLon0.03_PT027H.grib2 2026-05-01 06:14 937K
20260501T00Z_MSC_CAPS_WindU_IsbL-0450_RLatLon0.03_PT027H.grib2 2026-05-01 06:14 955K
20260501T00Z_MSC_CAPS_WindU_IsbL-0500_RLatLon0.03_PT027H.grib2 2026-05-01 06:14 1.0M
20260501T00Z_MSC_CAPS_WindU_IsbL-0550_RLatLon0.03_PT027H.grib2 2026-05-01 06:14 1.0M
20260501T00Z_MSC_CAPS_WindU_IsbL-0600_RLatLon0.03_PT027H.grib2 2026-05-01 06:14 1.0M
20260501T00Z_MSC_CAPS_WindU_IsbL-0650_RLatLon0.03_PT027H.grib2 2026-05-01 06:14 1.0M
20260501T00Z_MSC_CAPS_WindU_IsbL-0700_RLatLon0.03_PT027H.grib2 2026-05-01 06:14 1.0M
20260501T00Z_MSC_CAPS_WindU_IsbL-0750_RLatLon0.03_PT027H.grib2 2026-05-01 06:14 1.0M
20260501T00Z_MSC_CAPS_WindU_IsbL-0800_RLatLon0.03_PT027H.grib2 2026-05-01 06:14 1.1M
20260501T00Z_MSC_CAPS_WindU_IsbL-0850_RLatLon0.03_PT027H.grib2 2026-05-01 06:14 1.2M
20260501T00Z_MSC_CAPS_WindU_IsbL-0875_RLatLon0.03_PT027H.grib2 2026-05-01 06:14 1.2M
20260501T00Z_MSC_CAPS_WindU_IsbL-0900_RLatLon0.03_PT027H.grib2 2026-05-01 06:14 1.2M
20260501T00Z_MSC_CAPS_WindU_IsbL-0925_RLatLon0.03_PT027H.grib2 2026-05-01 06:14 1.3M
20260501T00Z_MSC_CAPS_WindU_IsbL-0950_RLatLon0.03_PT027H.grib2 2026-05-01 06:14 1.3M
20260501T00Z_MSC_CAPS_WindU_IsbL-0970_RLatLon0.03_PT027H.grib2 2026-05-01 06:14 1.4M
20260501T00Z_MSC_CAPS_WindU_IsbL-0985_RLatLon0.03_PT027H.grib2 2026-05-01 06:14 1.4M
20260501T00Z_MSC_CAPS_WindU_IsbL-1000_RLatLon0.03_PT027H.grib2 2026-05-01 06:14 1.8M
20260501T00Z_MSC_CAPS_WindU_IsbL-1015_RLatLon0.03_PT027H.grib2 2026-05-01 06:14 2.0M
20260501T00Z_MSC_CAPS_WindV_AGL-10m_RLatLon0.03_PT027H.grib2 2026-05-01 06:14 1.9M
20260501T00Z_MSC_CAPS_WindV_AGL-120m_RLatLon0.03_PT027H.grib2 2026-05-01 06:14 1.1M
20260501T00Z_MSC_CAPS_WindV_AGL-40m_RLatLon0.03_PT027H.grib2 2026-05-01 06:14 1.2M
20260501T00Z_MSC_CAPS_WindV_AGL-80m_RLatLon0.03_PT027H.grib2 2026-05-01 06:14 1.2M
20260501T00Z_MSC_CAPS_WindV_IsbL-0050_RLatLon0.03_PT027H.grib2 2026-05-01 06:14 936K
20260501T00Z_MSC_CAPS_WindV_IsbL-0100_RLatLon0.03_PT027H.grib2 2026-05-01 06:14 1.0M
20260501T00Z_MSC_CAPS_WindV_IsbL-0150_RLatLon0.03_PT027H.grib2 2026-05-01 06:14 722K
20260501T00Z_MSC_CAPS_WindV_IsbL-0175_RLatLon0.03_PT027H.grib2 2026-05-01 06:14 856K
20260501T00Z_MSC_CAPS_WindV_IsbL-0200_RLatLon0.03_PT027H.grib2 2026-05-01 06:14 873K
20260501T00Z_MSC_CAPS_WindV_IsbL-0225_RLatLon0.03_PT027H.grib2 2026-05-01 06:14 892K
20260501T00Z_MSC_CAPS_WindV_IsbL-0250_RLatLon0.03_PT027H.grib2 2026-05-01 06:14 908K
20260501T00Z_MSC_CAPS_WindV_IsbL-0275_RLatLon0.03_PT027H.grib2 2026-05-01 06:14 705K
20260501T00Z_MSC_CAPS_WindV_IsbL-0300_RLatLon0.03_PT027H.grib2 2026-05-01 06:14 709K
20260501T00Z_MSC_CAPS_WindV_IsbL-0350_RLatLon0.03_PT027H.grib2 2026-05-01 06:14 935K
20260501T00Z_MSC_CAPS_WindV_IsbL-0400_RLatLon0.03_PT027H.grib2 2026-05-01 06:14 940K
20260501T00Z_MSC_CAPS_WindV_IsbL-0450_RLatLon0.03_PT027H.grib2 2026-05-01 06:14 958K
20260501T00Z_MSC_CAPS_WindV_IsbL-0500_RLatLon0.03_PT027H.grib2 2026-05-01 06:14 1.0M
20260501T00Z_MSC_CAPS_WindV_IsbL-0550_RLatLon0.03_PT027H.grib2 2026-05-01 06:14 907K
20260501T00Z_MSC_CAPS_WindV_IsbL-0600_RLatLon0.03_PT027H.grib2 2026-05-01 06:14 934K
20260501T00Z_MSC_CAPS_WindV_IsbL-0650_RLatLon0.03_PT027H.grib2 2026-05-01 06:14 964K
20260501T00Z_MSC_CAPS_WindV_IsbL-0700_RLatLon0.03_PT027H.grib2 2026-05-01 06:14 1.0M
20260501T00Z_MSC_CAPS_WindV_IsbL-0750_RLatLon0.03_PT027H.grib2 2026-05-01 06:14 1.0M
20260501T00Z_MSC_CAPS_WindV_IsbL-0800_RLatLon0.03_PT027H.grib2 2026-05-01 06:14 1.1M
20260501T00Z_MSC_CAPS_WindV_IsbL-0850_RLatLon0.03_PT027H.grib2 2026-05-01 06:14 1.2M
20260501T00Z_MSC_CAPS_WindV_IsbL-0875_RLatLon0.03_PT027H.grib2 2026-05-01 06:14 1.2M
20260501T00Z_MSC_CAPS_WindV_IsbL-0900_RLatLon0.03_PT027H.grib2 2026-05-01 06:14 1.2M
20260501T00Z_MSC_CAPS_WindV_IsbL-0925_RLatLon0.03_PT027H.grib2 2026-05-01 06:14 1.3M
20260501T00Z_MSC_CAPS_WindV_IsbL-0950_RLatLon0.03_PT027H.grib2 2026-05-01 06:14 1.3M
20260501T00Z_MSC_CAPS_WindV_IsbL-0970_RLatLon0.03_PT027H.grib2 2026-05-01 06:14 1.7M
20260501T00Z_MSC_CAPS_WindV_IsbL-0985_RLatLon0.03_PT027H.grib2 2026-05-01 06:14 1.8M
20260501T00Z_MSC_CAPS_WindV_IsbL-1000_RLatLon0.03_PT027H.grib2 2026-05-01 06:14 1.8M
20260501T00Z_MSC_CAPS_WindV_IsbL-1015_RLatLon0.03_PT027H.grib2 2026-05-01 06:14 1.8M